ONEWEB-0606, 54670

Orbit data source: Space-Track

ONEWEB-0606, 54670 is a payload satellite owned by One Web (NAA) (UK) in LEO that was launched on Thu, 08 Dec 2022 UTC via an FALCON 9 launch vehicle from the Air Force Eastern Test Range (AFETR). Payload-class satellites include a variety of spacecraft equipped with specific instruments for various scientific and technological missions. These include communications satellites like Starlink; space stations such as the ISS; scientific satellites like the Hubble; Earth observation satellites from companies like Planet Labs, Umbra, and HawkEye 360; GPS; miniature CubeSats for education and research; and military/defense satellites.

Loading next visibility...
Identifier
54670, 2022-166AE
Orbit
LEO
Country
Flag of UKUK
Related business
Manufacturer
One Web
Mission
Operational Commercial Communications
Bus & Motor
ARROW, Unknown motor
Mass
148 kg wet, ~140 kg dry
Launch date (UTC)
2022-12-08 (4 years ago)
Launch vehicle
FALCON 9
Launch site
Air Force Eastern Test Range (AFETR)
Object type
Payload
Rocket body
Debris
Shape & HBR
Trap Box + 2 Pan, 6.7 m
Radar Cross Section
3.464 m², Large (>1 m²)

Expand to show TLE details & history
Last TLE update: 2 days ago

TLE from 2 days ago
0 ONEWEB-0606
1 54670U 22166AE  26171.26337213 -.00000119  00000-0 -31907-3 0  9999
2 54670  87.9251 243.3875 0002035 103.3875 256.7486 13.21826284171975
Epoch: 2026-06-20T06:19Z
TLE epoch observation values (Epoch: 2026-06-20T06:19:15.352Z)
Latitude
0.00001°
Longitude
-119.90697°
Altitude
1,181.01 km
Speed
7.263 km/s
True Right ascension
16h 13m 33s
True Declination
0° 00' 00"
Sunlit
Object was in full shadow at epoch
Visualization orbit readout
Latitude
Unknown
Longitude
Unknown
Altitude
Unknown
Speed
Unknown
Apparent Right ascension
Unknown
Apparent Declination
Unknown
Sunlit
N/A
Visualization observer readout
Local Sidereal Time
21:57:13
Azimuth
Unknown
Elevation
Unknown
Doppler factor
Unknown
Orbital elements
Apogee altitude
1,176.392 km
Perigee altitude
1,173.318 km
Semi-major axis
7,552.992 km
Eccentricity
0.0002
Inclination
87.9251°
RAAN
243.3875°
Arg. of periapsis
103.3875°
True anomaly
256.7259°
Mean anomaly
256.7486°
Eccentric anomaly
256.73725°
Mean motion
3.30647 °/min
Orbital period
108.88 mins
BSTAR
-0.00031907
Loading maneuver chart data...
Computing Atmospheric mass density...
Loading historical data...
Loading historical data...
Loading historical data...
Loading historical data...
Loading historical data...
Loading historical data...
Loading historical data...

Documentation

Showing up to 5 results
|